Regional Weather Roundup
Issued by NWS Charleston, SC

Current Version | Previous Version | Graphics & Text | Print | Product List | Glossary On
Versions: 1 2 3 4 5 6 7 8 9 10 11 12 13 14 15 16 17 18 19 20 21 22 23 24 25 26 27 28 29 30 31 32 33 34 35 36 37 38 39 40 41 42 43 44 45 46 47 48 49 50
000
ASUS42 KCHS 271410
RWRCHS
REGIONAL WEATHER ROUNDUP
NATIONAL WEATHER SERVICE CHARLESTON SC
1000 AM EDT WED AUG 27 2014

NOTE: "FAIR" INDICATES FEW OR NO CLOUDS BELOW 12,000 FEET WITH NO
SIGNIFICANT WEATHER AND/OR OBSTRUCTIONS TO VISIBILITY.

NOT ALL STATIONS ARE QUALITY CONTROLLED BY THE NATIONAL
WEATHER SERVICE. USE DATA WITH CAUTION...ESPECIALLY
DEWPOINT OBSERVATIONS.

SCZ027-030-031-034>040-042>050-271500-
...SOUTH CAROLINA...

CITY           SKY/WX    TMP DP  RH WIND       PRES   REMARKS
N CHARLESTON   MOSUNNY   79  63  57 N10       30.03S
WATERFRONT PRK   N/A     77 N/A N/A N14         N/A
FORT JOHNSON   NOT AVBL
MOUNT PLEASANT FAIR      75  64  69 N7        30.02S
JOHNS ISLAND   SUNNY     79  64  61 N10G16    30.03S
PINOPOLIS        N/A     75  64  69 N12       29.97S
MONCKS CORNER    N/A     77  68  73 N9        30.04S
SUMMERVILLE    FAIR      77  66  69 N7        30.05S
BEAUFORT MCAS  SUNNY     79  63  57 N8        30.04S
BEAUFORT ARPT  FAIR      77  64  65 N8        30.04R
HILTON HEAD IS SUNNY     79  64  61 N9        30.05S
GEORGETOWN     NOT AVBL
WALTERBORO     SUNNY     77  64  65 N6        30.06S
ORANGEBURG     SUNNY     77  61  57 NE9       30.07S
BARNWELL       FAIR      77  63  61 N9        30.08F
AIKEN          FAIR      77  64  65 N6        30.12F
MANNING        FAIR      77  68  73 N6        30.06R
KINGSTREE      NOT AVBL
COLUMBIA       MOSUNNY   79  61  53 N8        30.08S
SUMTER         SUNNY     76  64  67 N8        30.06R
FLORENCE       SUNNY     76  62  62 NE8       30.06S
MYRTLE BEACH   SUNNY     75  63  64 N14       30.02S
N MYRTLE BEACH NOT AVBL

$$

GAZ063-065-086>088-099>101-113>116-118-119-134-136>141-150-271500-
...GEORGIA...

CITY           SKY/WX    TMP DP  RH WIND       PRES   REMARKS
SAVANNAH ARPT  SUNNY     78  63  59 N8        30.06R
HUNTER AAF     SUNNY     78  64  61 N8        30.03R
FORT STEWART   SUNNY     77  64  63 NE7       30.04S
STATESBORO     NOT AVBL
SYLVANIA       SUNNY     76  67  73 N6        30.08S
CLAXTON        NOT AVBL
THOMSON        SUNNY     75  70  83 NW3       30.15S
AUGUSTA-BUSH   SUNNY     77  63  61 N6        30.08S
AUGUSTA-DANIEL SUNNY     77  61  57 N5        30.10S
SWAINSBORO     FAIR      81  66  61 NE6       30.10R
VIDALIA          N/A     77  64  65 N6        30.08S
ALMA           SUNNY     78  66  66 E5        30.06S
WAYCROSS       SUNNY     83  69  62 E8        30.05S
JESUP            N/A     81  68  65 NE6       30.05F
BRUNSWICK      SUNNY     79  64  61 N7        30.04S
SAINT SIMONS   SUNNY     80  65  59 N13       30.02S

$$

SCZ027-028-034-036>038-045-046-048>050-GAZ119-141-271500-
...LAKE AND SUPPLEMENTAL COASTAL OBSERVATIONS...

STATION/POSITION TIME  TEMP    WIND        PRES    WAVE   SWELL
                       AIR SEA DIR/SP/G            HT/PER HT/PER/DIR
                 (UTC) (F)     (DEG/KT/KT) (MB)    (FT/S) (FT/S/D)
UPR LAKE MARION  NOT AVBL
WINYAH BAY       1300   71     350/  5     1016.0S
LAKE MURRAY      1300   73      10/  3/  6 1018.6R
ACE BASIN NERRS  1300   73      20/  3     1017.0S
FORT PULASKI     1400   76     360/  8/ 12 1017.4S
SAPELO ISLAND    1300   77      10/  9     1017.0S

$$

ANZ835-935-AMZ111-154-330-350-352-354-374-450-454-472-271500-
...C-MAN AND BUOY OBSERVATIONS...

STATION/POSITION TIME  TEMP    WIND        PRES    WAVE   SWELL
                       AIR SEA DIR/SP/G            HT/PER HT/PER/DIR
                 (UTC) (F)     (DEG/KT/KT) (MB)    (FT/S) (FT/S/D)
FOLLY BEACH CMAN 1300   74     360/ 10/ 14 1016.9R
BUOY 41004       1400   79 83   20/ 17/ 21 1014.4F   7/12   5/12
BUOY 41008       1400   79 84   20/ 14/ 16 1016.2R   5/ 9   3/110/ 9
5E ST. MARYS GA  1400      83                N/A     5/10   2/110/11
FRYING PAN BUOY  NOT AVBL
BUOY 41025       1400   79      10/ 21/ 25 1013.3R   8/ 8   5/ 90/10
CAPE LOOKOUT NC  1300   77     360/ 16/ 20 1014.5R
BUOY 41002       1312   79 81  340/ 23/ 29 1007.6S  14/10   7/ 70/12
BUOY 41010       1400   82 83  340/  6/  8 1013.9R   9/10   8/ 40/10
BUOY 41012       NOT AVBL
ST AUGUSTINE FL  1400   80      20/ 12/ 14 1016.8R
CAPERS NEARSHORE 1300   73      10/ 12/ 14   N/A
FRIPP NEARSHORE  NOT AVBL


$$



USA.gov is the U.S. government's official web portal to all federal, state and local government web resources and services.